Starlink 35009

operational
NORAD ID: 65449 Int'l Des: 2025-194 Owner: SPXS Country: US Constellation: starlink
LEOCIRCULARRETROGRADE

关于 Starlink 35009

正在加载描述...

实时位置

正在加载3D地球...

即将过境

高度历史

Altitude vs Time

uPlot chart will show altitude changes over time

两行轨道根数

1 65449U 25194R 25340.92093314 .00009227 00000-0 64265-3 0 9990
2 65449 97.6030 193.0283 0002144 81.0189 279.1281 15.05660605 15694
Epoch: Dec 6, 2025 • Age: 17 hours

当前状态

高度 553.8 km
速度 7.58 km/s
星下点 -5.59°S, 73.24°E
发射日期 Sep 3, 2025
运行时间 0.2 years
类型 internet

技术详情

分类 Payload
质量 575.00 kg
干质量 530.00 kg
总质量 575.00 kg
长度 0.30 m
直径 4.10 m
跨度 29.00 m
形状 Box + pan
制造商 SPXS
平台类型 Starlink V2MO
阶段状态 In Orbit
所有者/国家 SPXS/US

大型星座

Loading constellations...